Terminal Aerodrome Forecast
Issued by NWS Anchorage, AK

Home | Current Version | Previous Version | Text Only | Print | Product List | Glossary On
Versions: 1 2 3 4 5 6 7 8 9 10 11 12 13 14 15 16 17 18 19 20 21 22 23 24 25 26 27 28 29 30 31 32 33 34 35 36 37 38 39 40 41 42 43 44 45 46 47 48 49 50
000
FTAK31 PANC 290203 AAC
TAFANC
TAF AMD
PANC 290203Z 2902/3006 23008KT P6SM -RA SCT030 OVC050
      TEMPO 2902/2906 6SM -RA BKN030
     FM291200 35005KT P6SM SCT030 BKN060
     FM300000 15010KT P6SM FEW040 BKN100=

USA.gov is the U.S. government's official web portal to all federal, state and local government web resources and services.